Snowfall_Accumulation
0.0 0.0 0.0 0.0 0.0 0.0 0.0 0.0 0.0 0.0 0.0 0.0 0.0 0.0 0.0 0.0 0.0 0.0 0.0 0.0 0.0 0.0 0.0 0.0 0.0 0.0 0.0 0.0 0.0 0.0 0.0 0.0 0.0 0.0 0.0 0.0 0.0 0.0 0.0 0.0 0.0 0.0 0.0
0.0 0.0 0.0 0.0 0.0 0.0 0.0 0.0 0.0 0.0 0.0 0.0 0.0 0.0 0.0 0.0 0.0 0.0 0.0 0.0 0.0 0.0 0.0 0.0 0.0 0.0 0.0 0.0 0.0 0.0 0.0 0.0 0.0 0.0 0.0 0.0 0.0 0.0 0.0 0.0 0.0 0.0 0.0
0.0 0.0 0.0 0.0 0.0 0.0 0.0 0.0 0.0 0.0 0.0 0.0 0.0 0.0 0.0 0.0 0.0 0.0 0.0 0.0 0.0 0.0 0.0 0.0 0.0 0.0 0.0 0.0 0.0 0.0 0.0 0.0 0.0 0.0 0.0 0.0 0.0 0.0 0.1 0.1 0.1 0.1 0.0
0.0 0.0 0.0 0.0 0.0 0.0 0.0 0.0 0.0 0.0 0.0 0.0 0.0 0.0 0.0 0.0 0.0 0.0 0.0 0.0 0.0 0.0 0.0 0.0 0.0 0.0 0.0 0.0 0.0 0.0 0.0 0.0 0.0 0.0 0.0 0.2 0.4 0.4 0.3 0.5 0.5 0.3 0.3
0.0 0.0 0.0 0.0 0.0 0.0 0.0 0.0 0.0 0.0 0.0 0.0 0.0 0.0 0.0 0.0 0.0 0.0 0.0 0.0 0.0 0.0 0.0 0.0 0.0 nan nan nan 0.0 0.0 0.0 0.0 0.0 0.0 0.5 1.0 1.2 1.3 0.8 0.4 0.9 0.9 0.9
0.0 0.0 0.0 0.0 0.0 0.0 0.0 0.0 0.0 0.0 0.0 0.0 0.0 0.0 0.0 0.0 nan nan 0.0 0.0 0.0 0.0 0.0 0.0 0.0 0.0 0.1 nan nan nan nan 0.0 0.1 0.6 0.9 1.2 1.4 1.2 1.0 2.1 2.1 2.9 3.4
0.0 0.0 0.0 0.0 0.0 0.0 0.0 0.0 0.0 0.0 0.0 0.0 0.0 0.0 0.0 0.0 nan nan nan 0.0 0.0 0.0 0.0 0.1 0.2 0.1 nan 0.4 nan nan nan nan 0.0 0.1 0.3 0.7 1.1 0.6 0.4 2.3 2.1 2.0 1.7
0.0 0.0 0.0 0.0 0.0 0.0 0.0 0.0 0.0 0.0 0.0 0.0 0.0 0.0 0.0 0.0 nan nan nan 0.0 0.1 0.4 0.3 0.7 0.8 2.0 1.5 0.8 1.8 3.3 3.2 1.5 0.7 0.3 0.3 0.4 0.5 0.3 0.4 0.5 1.4 2.9 2.7
0.0 0.0 0.0 0.0 0.0 0.0 0.0 0.0 0.0 0.0 0.0 0.0 0.0 0.0 0.0 0.0 nan nan 0.0 0.1 0.5 1.5 1.5 2.5 2.3 2.9 nan nan 1.7 3.9 4.6 4.4 nan nan nan nan nan nan nan 2.7 4.4 4.7 4.5
0.0 0.0 0.0 0.0 0.0 0.0 0.0 0.0 0.0 0.0 0.0 0.0 0.1 0.1 nan 0.0 nan nan nan 0.2 0.8 1.9 2.2 2.8 nan 2.8 nan nan 1.3 1.9 4.1 6.4 3.1 2.9 2.7 2.2 nan nan nan 0.6 1.8 5.2 3.6
0.0 0.0 0.0 0.0 0.0 0.0 0.0 0.0 0.0 0.0 0.1 0.1 0.2 0.1 0.1 0.0 0.1 nan nan 0.2 0.9 1.5 1.7 2.0 2.2 nan nan nan nan 2.3 3.5 4.8 4.6 5.3 5.0 4.4 3.8 3.2 3.2 2.8 2.0 3.0 3.6
0.0 0.0 0.0 0.0 0.0 0.0 0.0 0.0 0.0 0.1 0.2 0.3 0.8 0.6 0.8 0.4 nan nan nan nan nan 2.6 3.1 3.5 3.2 nan nan nan 2.6 nan nan 2.7 6.6 7.3 7.2 7.1 6.1 5.3 3.7 2.6 1.9 1.3 0.8
0.0 0.0 0.0 0.0 0.1 0.1 0.1 0.2 0.4 0.1 0.5 0.6 1.6 2.1 3.0 2.4 3.2 nan nan nan nan 2.5 2.5 2.7 nan nan nan 1.4 nan nan 1.1 5.4 6.5 8.6 6.5 5.7 4.2 2.9 1.9 1.6 1.0 0.6 0.5
2.0 3.6 1.7 2.9 1.3 1.7 2.2 2.4 3.4 3.8 4.2 4.6 5.3 7.3 6.8 5.7 4.5 3.8 3.8 4.3 nan 4.6 2.0 3.7 1.2 2.9 1.0 1.8 3.5 3.7 2.5 2.5 3.3 3.6 3.6 2.5 1.5 1.7 1.8 1.1 1.7 1.4 2.3
2.1 4.6 5.5 8.0 8.8 5.4 5.4 6.5 5.9 6.6 5.1 5.6 4.6 5.5 8.2 10.6 8.3 6.4 6.3 5.8 5.3 3.8 4.0 7.0 6.6 5.0 3.9 2.3 1.8 1.3 1.0 1.4 2.8 2.5 2.4 1.7 1.2 1.0 1.1 1.1 1.1 0.8 2.4
2.4 5.1 6.9 7.8 10.9 11.9 9.0 11.6 nan nan nan nan nan 10.7 14.4 nan nan nan nan nan nan nan 3.8 5.1 8.1 7.9 4.9 2.3 3.1 2.6 1.9 1.9 1.9 1.8 2.9 2.2 2.5 2.5 2.5 2.1 1.9 2.5 3.3
2.2 2.2 6.0 7.3 10.5 10.8 12.2 12.0 13.1 15.7 nan nan nan nan nan nan nan nan nan nan nan nan 7.2 6.5 11.7 12.0 7.0 3.4 2.9 2.4 3.6 2.9 1.0 2.5 3.3 3.8 3.8 2.6 3.3 2.7 2.6 2.7 2.9
3.5 1.4 6.9 8.2 10.6 13.2 14.2 14.1 12.5 12.4 13.9 15.1 nan nan nan nan nan nan nan nan 8.8 nan 5.3 7.6 9.9 8.9 5.2 4.0 3.7 3.7 3.5 4.3 4.3 3.1 4.9 6.6 7.8 5.9 5.1 3.6 3.0 5.9 3.8
8.1 9.4 10.2 12.6 12.3 13.2 13.1 13.9 13.4 13.1 13.2 13.9 13.2 10.4 7.2 nan nan nan nan 10.5 9.7 7.9 6.2 6.8 8.6 7.5 6.3 4.8 10.2 10.9 12.9 11.2 10.6 13.0 7.1 7.2 14.6 4.1 4.8 3.5 4.0 3.8 3.1
8.8 3.9 6.1 8.2 10.0 12.7 12.1 12.8 14.0 14.4 13.7 13.5 13.0 13.9 12.0 8.1 16.5 24.0 18.7 22.4 18.2 11.9 11.5 9.2 7.9 7.7 9.4 7.9 13.8 18.9 16.0 14.6 10.6 7.4 14.5 19.3 16.5 7.5 7.4 6.7 7.7 6.9 2.6
6.0 6.3 1.8 6.2 6.5 6.9 9.0 11.5 11.9 12.3 13.7 12.8 16.6 18.6 5.8 13.7 18.2 17.2 15.9 18.0 14.6 13.0 15.5 9.8 10.3 9.6 8.5 9.8 6.2 10.7 5.2 19.8 8.9 8.8 8.1 7.6 30.8 11.2 5.6 5.9 6.5 4.7 3.7
3.6 4.2 5.3 6.6 6.3 8.0 7.6 7.9 8.5 9.1 10.3 11.2 12.7 12.4 5.5 15.5 13.1 14.5 14.5 17.8 22.3 11.7 9.4 9.8 8.3 7.3 7.2 6.5 7.0 18.2 14.2 18.3 15.5 11.0 9.9 10.0 7.6 6.8 7.2 7.1 8.4 8.3 5.4
3.7 5.9 4.7 4.5 5.4 7.3 8.9 6.9 9.8 10.1 9.4 11.4 9.3 10.2 11.0 14.6 14.3 10.8 12.9 18.3 11.4 13.0 11.2 9.5 14.3 8.7 7.9 10.6 9.8 7.5 11.1 9.8 10.1 12.5 15.6 14.6 8.5 8.3 13.4 9.5 7.7 9.0 9.2
3.1 6.1 4.0 6.7 8.9 6.2 11.4 15.0 11.3 7.8 8.5 11.4 18.1 16.2 13.5 14.3 22.6 18.5 19.2 21.6 14.3 17.4 16.4 17.2 8.3 6.7 6.5 17.5 12.1 9.6 6.0 11.4 8.3 9.5 10.3 13.9 9.9 6.7 10.6 8.0 7.6 9.3 11.1
6.3 9.1 9.7 7.4 7.4 13.2 16.0 12.3 13.8 15.9 15.2 17.1 20.5 17.2 8.5 13.4 11.1 21.6 17.9 13.9 12.7 18.1 10.8 12.8 11.3 8.4 10.0 8.2 7.6 4.1 5.8 4.6 9.2 5.0 10.4 8.4 10.6 10.1 10.8 9.3 11.8 8.0 9.7
4.5 5.4 7.3 7.8 8.6 11.8 12.8 18.5 19.4 16.9 17.3 18.7 18.6 19.9 15.3 11.6 10.6 18.0 13.5 13.0 11.6 11.2 10.2 11.1 10.1 8.2 7.4 7.5 5.2 5.6 5.4 5.0 13.6 5.1 15.0 7.8 11.9 11.0 10.8 9.5 7.6 10.4 7.5
Water_Equivalent
0.00 0.00 0.00 0.00 0.00 0.00 0.00 0.00 0.00 0.00 0.00 0.00 0.00 0.00 0.00 0.00 0.00 0.00 0.00 0.00 0.00 0.00 0.00 0.00 0.00 0.00 0.00 0.00 0.00 0.00 0.00 0.00 0.00 0.00 0.00 0.00 0.00 0.00 0.00 0.00 0.00 0.00 0.00
0.00 0.00 0.00 0.00 0.00 0.00 0.00 0.00 0.00 0.00 0.00 0.00 0.00 0.00 0.00 0.00 0.00 0.00 0.00 0.00 0.00 0.00 0.00 0.00 0.00 0.00 0.00 0.00 0.00 0.00 0.00 0.00 0.00 0.00 0.00 0.00 0.00 0.00 0.00 0.00 0.00 0.00 0.00
0.00 0.00 0.00 0.00 0.00 0.00 0.00 0.00 0.00 0.00 0.00 0.00 0.00 0.00 0.00 0.00 0.00 0.00 0.00 0.00 0.00 0.00 0.00 0.00 0.00 0.00 0.00 0.00 0.00 0.00 0.00 0.00 0.00 0.00 0.00 0.00 0.01 0.00 0.02 0.02 0.04 0.03 0.00
0.00 0.00 0.00 0.00 0.00 0.00 0.00 0.00 0.00 0.00 0.00 0.00 0.00 0.00 0.00 0.00 0.00 0.00 0.00 0.00 0.00 0.00 0.00 0.00 0.00 0.00 0.00 0.00 0.00 0.00 0.00 0.00 0.00 0.00 0.00 0.05 0.09 0.11 0.09 0.10 0.13 0.12 0.10
0.00 0.00 0.00 0.00 0.00 0.00 0.00 0.00 0.00 0.00 0.00 0.00 0.00 0.00 0.00 0.00 0.00 0.00 0.00 0.00 0.00 0.00 0.00 0.00 0.00 nan nan nan 0.00 0.00 0.00 0.00 0.00 0.00 0.12 0.20 0.23 0.24 0.14 0.09 0.15 0.13 0.13
0.00 0.00 0.00 0.00 0.00 0.00 0.00 0.00 0.00 0.00 0.00 0.00 0.00 0.00 0.00 0.00 nan nan 0.00 0.00 0.00 0.00 0.00 0.00 0.00 0.00 0.02 nan nan nan nan 0.01 0.02 0.13 0.19 0.23 0.26 0.27 0.25 0.42 0.40 0.53 0.55
0.00 0.00 0.00 0.00 0.00 0.00 0.00 0.00 0.00 0.00 0.00 0.00 0.00 0.00 0.00 0.00 nan nan nan 0.00 0.00 0.00 0.01 0.03 0.04 0.04 nan 0.08 nan nan nan nan 0.00 0.03 0.07 0.17 0.25 0.13 0.09 0.38 0.34 0.32 0.25
0.00 0.00 0.00 0.00 0.00 0.00 0.00 0.00 0.00 0.00 0.00 0.00 0.00 0.00 0.00 0.00 nan nan nan 0.00 0.03 0.09 0.09 0.19 0.17 0.44 0.36 0.19 0.37 0.86 0.59 0.29 0.13 0.06 0.05 0.07 0.09 0.06 0.07 0.09 0.24 0.39 0.38
0.00 0.00 0.00 0.00 0.00 0.00 0.00 0.00 0.00 0.00 0.00 0.00 0.00 0.00 0.00 0.00 nan nan 0.00 0.02 0.12 0.33 0.33 0.51 0.50 0.71 nan nan 0.33 0.65 0.72 0.68 nan nan nan nan nan nan nan 0.47 0.71 0.78 0.74
0.00 0.00 0.00 0.00 0.00 0.00 0.00 0.00 0.00 0.00 0.00 0.00 0.02 0.02 nan 0.00 nan nan nan 0.10 0.15 0.39 0.47 0.62 nan 0.61 nan nan 0.23 0.31 0.59 0.85 0.46 0.43 0.41 0.33 nan nan nan 0.10 0.33 0.85 0.54
0.00 0.00 0.00 0.00 0.00 0.00 0.00 0.00 0.00 0.02 0.02 0.04 0.07 0.04 0.04 0.01 0.05 nan nan 0.07 0.24 0.33 0.37 0.40 0.45 nan nan nan nan 0.37 0.49 0.64 0.67 0.68 0.64 0.59 0.52 0.44 0.47 0.44 0.32 0.54 0.59
0.00 0.00 0.00 0.00 0.00 0.00 0.00 0.00 0.01 0.02 0.04 0.10 0.23 0.18 0.25 0.12 nan nan nan nan nan 0.56 0.57 0.66 0.64 nan nan nan 0.46 nan nan 0.66 1.02 1.06 0.99 0.91 0.78 0.68 0.49 0.36 0.25 0.20 0.15
0.00 0.00 0.00 0.00 0.02 0.02 0.02 0.06 0.11 0.03 0.15 0.20 0.52 0.52 0.60 0.54 0.72 nan nan nan nan 0.51 0.48 0.50 nan nan nan 0.45 nan nan 0.36 0.87 1.03 1.30 0.87 0.68 0.51 0.38 0.24 0.23 0.14 0.10 0.09
0.39 0.70 0.35 0.59 0.26 0.32 0.47 0.55 0.78 0.90 0.92 0.94 1.05 1.22 1.15 0.94 0.72 0.63 0.65 0.73 nan 0.70 0.53 0.54 0.38 0.46 0.31 0.40 0.54 0.50 0.47 0.51 0.62 0.62 0.52 0.33 0.23 0.29 0.31 0.22 0.32 0.28 0.47
0.35 0.84 1.01 1.56 1.50 0.82 0.80 1.02 0.99 1.06 1.12 1.13 0.91 1.06 1.56 1.85 1.36 1.12 1.07 0.94 0.86 0.64 0.81 1.04 0.85 0.63 0.50 0.34 0.32 0.27 0.24 0.30 0.52 0.47 0.43 0.30 0.23 0.19 0.24 0.25 0.24 0.18 0.45
0.42 0.82 1.08 1.34 2.04 2.16 1.40 1.63 nan nan nan nan nan 2.16 2.72 nan nan nan nan nan nan nan 0.66 0.77 1.21 1.27 0.76 0.38 0.53 0.47 0.37 0.39 0.35 0.35 0.59 0.42 0.46 0.48 0.46 0.43 0.38 0.46 0.54
0.32 0.32 0.97 1.22 1.71 1.78 2.07 1.87 1.81 2.39 nan nan nan nan nan nan nan nan nan nan nan nan 1.09 0.95 1.61 1.78 1.09 0.50 0.44 0.39 0.57 0.52 0.15 0.46 0.60 0.68 0.67 0.49 0.64 0.53 0.53 0.51 0.53
0.65 0.48 1.12 1.23 1.70 2.11 2.28 2.25 2.11 1.98 2.01 2.08 nan nan nan nan nan nan nan nan 1.19 nan 0.73 1.01 1.31 1.25 0.73 0.53 0.49 0.49 0.50 0.69 0.70 0.54 0.83 1.11 1.30 0.94 0.87 0.60 0.53 0.85 0.60
1.33 1.50 1.60 2.03 1.87 1.89 1.95 2.08 1.97 1.96 2.06 1.99 1.88 1.66 1.59 nan nan nan nan 1.53 1.26 1.01 0.78 0.84 1.10 0.94 0.81 0.61 1.42 1.52 1.81 1.60 1.57 1.98 1.14 1.17 2.57 0.70 0.83 0.61 0.67 0.75 0.66
1.13 1.01 0.90 1.05 1.26 1.55 1.44 1.56 1.69 1.82 1.74 1.81 1.74 1.80 1.52 1.15 2.22 3.34 2.48 3.20 2.49 1.72 1.70 1.21 1.01 1.02 1.23 1.00 1.80 2.63 2.30 2.17 1.50 1.10 2.09 3.11 2.80 1.22 1.05 0.91 1.13 1.02 0.42
0.70 0.72 0.60 0.71 0.76 0.82 1.11 1.36 1.39 1.46 1.63 1.48 2.05 2.67 1.91 1.69 2.14 2.04 1.82 2.19 1.76 1.56 2.01 1.24 1.35 1.27 1.17 1.36 0.79 1.39 0.67 2.95 1.19 1.19 1.11 1.10 5.29 1.50 0.79 0.87 0.98 0.71 0.53
0.48 0.55 0.70 0.92 0.85 1.13 0.96 0.95 1.06 1.09 1.19 1.30 1.49 1.48 1.81 1.94 1.45 1.58 1.59 2.18 3.14 1.44 1.14 1.28 1.00 0.88 0.88 0.85 0.92 2.70 1.86 2.52 2.20 1.55 1.33 1.23 1.00 1.07 0.95 0.97 1.13 1.17 0.78
0.59 1.04 0.73 0.60 0.75 2.16 1.34 0.88 1.30 1.39 1.23 1.54 1.12 1.19 1.30 1.83 1.80 1.21 1.56 2.56 1.39 1.65 1.43 1.23 2.01 1.10 1.10 1.47 1.44 1.04 1.43 1.22 1.30 1.62 1.82 1.83 1.05 1.13 1.80 1.28 1.04 1.13 1.14
0.60 1.16 0.67 1.15 1.47 0.91 1.81 2.41 1.66 2.37 1.16 1.61 2.82 2.26 1.82 1.88 3.44 2.66 2.79 3.45 2.13 2.85 2.77 2.64 1.08 0.82 0.81 2.62 1.67 1.29 0.79 1.48 1.15 1.15 1.35 1.62 1.20 1.19 1.45 1.10 1.07 1.13 1.32
1.29 1.82 1.91 1.33 1.30 2.35 2.92 2.06 2.24 2.67 2.48 2.88 3.35 2.62 1.08 2.01 1.54 3.65 2.85 2.08 1.77 2.82 1.53 1.90 1.59 1.16 1.30 0.99 0.87 0.46 0.88 1.53 1.49 1.64 1.21 0.97 1.26 1.18 1.20 1.14 1.47 1.09 1.15
0.90 1.09 1.41 1.42 1.52 2.19 2.26 3.22 3.25 2.83 2.75 3.21 3.25 3.37 2.48 1.73 1.60 3.06 2.10 1.92 1.62 1.53 1.46 1.61 1.43 1.08 0.95 0.98 0.64 1.70 1.78 1.66 1.74 1.69 1.80 0.99 1.38 1.37 1.35 1.19 1.01 1.29 0.88
SL_Ratio
nan nan nan nan nan nan nan nan nan nan nan nan nan nan nan nan nan nan nan nan nan nan nan nan nan nan nan nan nan nan nan nan nan nan nan nan nan nan nan nan nan nan nan
nan nan nan nan nan nan nan nan nan nan nan nan nan nan nan nan nan nan nan nan nan nan nan nan nan nan nan nan nan nan nan nan nan nan nan nan nan nan nan nan nan nan nan
nan nan nan nan nan nan nan nan nan nan nan nan nan nan nan nan nan nan nan nan nan nan nan nan nan nan nan nan nan nan nan nan nan nan nan nan 4.2 nan 4.4 3.3 2.5 2.5 2.5
nan nan nan nan nan nan nan nan nan nan nan nan nan nan nan nan nan nan nan nan nan nan nan nan nan nan nan nan nan nan nan nan nan nan 3.3 4.3 4.0 4.0 3.8 4.8 4.2 2.8 2.8
nan nan nan nan nan nan nan nan nan nan nan nan nan nan nan nan nan nan nan nan nan nan nan nan nan nan nan nan nan nan nan nan nan nan 4.4 5.0 5.3 5.5 5.9 5.0 6.1 6.6 7.1
nan nan nan nan nan nan nan nan nan nan nan nan nan nan nan nan nan nan nan nan nan nan nan 0.0 0.0 0.0 3.2 nan nan nan nan 3.5 4.0 4.4 5.1 5.1 5.5 4.3 4.1 5.0 5.3 5.5 6.2
nan nan nan nan nan nan nan nan nan nan nan nan nan nan nan nan nan nan nan nan nan nan 2.4 3.0 3.9 4.0 nan 4.6 nan nan nan nan nan 4.3 4.1 4.2 4.6 4.7 4.5 6.1 6.2 6.1 6.6
nan nan nan nan nan nan nan nan nan nan nan nan nan nan nan nan nan nan nan 0.0 3.7 4.1 3.6 3.8 4.4 4.5 4.1 4.3 4.8 3.8 5.4 5.3 5.0 5.0 5.1 5.6 5.5 5.4 5.4 5.3 6.1 7.5 7.1
nan nan nan nan nan nan nan nan nan nan nan nan nan nan nan nan nan nan nan 4.3 4.6 4.7 4.7 4.9 4.7 4.1 nan nan 5.0 6.0 6.4 6.5 nan nan nan nan nan nan nan 5.8 6.3 6.0 6.1
nan nan nan nan nan nan nan nan nan nan nan 2.5 3.0 3.0 nan 2.5 nan nan nan 2.5 5.0 4.8 4.5 4.5 nan 4.5 nan nan 5.6 6.2 6.9 7.5 6.8 6.7 6.6 6.5 nan nan nan 5.6 5.4 6.1 6.6
nan nan nan nan nan nan nan nan nan 2.9 3.1 3.3 3.6 3.4 3.3 2.5 2.6 nan nan 2.7 3.8 4.5 4.7 5.1 4.9 nan nan nan nan 6.2 7.1 7.4 6.8 7.8 7.8 7.5 7.4 7.3 6.8 6.4 6.3 5.5 6.2
10.0 10.0 nan nan nan nan nan nan 3.0 3.5 3.8 3.4 3.4 3.4 3.2 3.6 nan nan nan nan nan 4.8 5.5 5.3 5.0 nan nan nan 5.6 nan nan 4.0 6.5 6.8 7.2 7.8 7.8 7.8 7.6 7.3 7.6 6.6 5.4
6.0 6.0 10.0 nan 4.1 3.7 3.6 4.1 3.9 3.5 3.1 3.0 3.1 3.9 5.0 4.4 4.5 nan nan nan nan 4.9 5.2 5.5 nan nan nan 3.0 nan nan 3.0 6.2 6.3 6.6 7.4 8.3 8.1 7.7 7.9 7.1 7.0 6.2 5.7
5.3 5.2 4.8 4.8 5.0 5.2 4.6 4.3 4.4 4.1 4.6 4.9 5.0 6.0 5.9 6.1 6.3 6.1 6.0 5.9 nan 6.6 3.7 6.8 3.0 6.3 3.0 4.6 6.5 7.3 5.2 4.9 5.2 5.9 7.0 7.5 6.7 5.8 5.6 5.3 5.4 5.1 4.8
6.0 5.4 5.4 5.1 5.9 6.6 6.9 6.4 6.0 6.2 4.5 5.0 5.0 5.2 5.3 5.7 6.1 5.7 5.9 6.1 6.1 5.9 5.0 6.7 7.7 8.0 7.9 6.9 5.8 4.9 4.4 4.7 5.3 5.4 5.6 5.5 5.2 5.0 4.8 4.4 4.5 4.6 5.3
5.9 6.3 6.4 5.8 5.3 5.5 6.4 7.1 nan nan nan nan nan 5.0 5.3 nan nan nan nan nan nan nan 5.7 6.6 6.7 6.2 6.5 6.0 5.9 5.6 5.2 5.0 5.4 5.2 5.0 5.2 5.4 5.3 5.4 4.9 4.9 5.4 6.0
6.9 6.7 6.2 6.0 6.1 6.1 5.9 6.4 7.2 6.6 nan nan nan nan nan nan nan nan nan nan nan nan 6.5 6.9 7.2 6.7 6.4 6.7 6.6 6.2 6.2 5.6 6.4 5.4 5.5 5.5 5.7 5.4 5.2 5.1 4.9 5.3 5.5
5.5 3.0 6.2 6.6 6.2 6.3 6.2 6.3 5.9 6.3 6.9 7.3 nan nan nan nan nan nan nan nan 7.4 nan 7.3 7.5 7.5 7.1 7.1 7.5 7.5 7.5 7.0 6.3 6.1 5.7 5.9 5.9 6.0 6.3 5.9 5.9 5.7 6.9 6.3
6.1 6.3 6.4 6.2 6.6 7.0 6.7 6.7 6.8 6.7 6.4 7.0 7.0 6.3 4.5 nan nan nan nan 6.9 7.7 7.8 8.0 8.1 7.8 8.0 7.8 7.8 7.2 7.2 7.1 7.0 6.8 6.6 6.3 6.2 5.7 5.8 5.8 5.7 6.0 5.1 4.7
7.8 3.9 6.7 7.8 7.9 8.2 8.4 8.2 8.3 7.9 7.9 7.4 7.4 7.7 7.9 7.1 7.5 7.2 7.5 7.0 7.3 6.9 6.8 7.6 7.8 7.5 7.6 7.9 7.7 7.2 7.0 6.7 7.0 6.8 6.9 6.2 5.9 6.1 7.0 7.3 6.8 6.8 6.2
8.6 8.8 3.0 8.7 8.6 8.4 8.1 8.5 8.6 8.4 8.4 8.6 8.1 7.0 3.0 8.1 8.5 8.4 8.7 8.2 8.3 8.3 7.7 7.9 7.7 7.5 7.3 7.3 7.8 7.7 7.7 6.7 7.5 7.4 7.3 6.9 5.8 7.4 7.1 6.8 6.6 6.6 7.0
7.5 7.6 7.5 7.2 7.4 7.1 8.0 8.3 8.0 8.3 8.6 8.6 8.5 8.3 3.0 8.0 9.0 9.2 9.1 8.2 7.1 8.2 8.3 7.7 8.2 8.3 8.2 7.7 7.6 6.7 7.6 7.3 7.0 7.1 7.4 8.2 7.6 6.4 7.6 7.3 7.4 7.1 7.0
6.4 5.7 6.4 7.5 7.2 3.4 6.7 7.9 7.5 7.3 7.7 7.4 8.3 8.6 8.5 7.9 7.9 8.9 8.2 7.1 8.2 7.9 7.8 7.8 7.1 7.9 7.1 7.2 6.8 7.2 7.8 8.0 7.8 7.7 8.6 8.0 8.1 7.4 7.4 7.4 7.5 7.9 8.1
5.2 5.2 6.0 5.9 6.0 6.8 6.3 6.2 6.8 3.3 7.3 7.1 6.4 7.1 7.4 7.6 6.6 7.0 6.9 6.3 6.7 6.1 5.9 6.5 7.7 8.1 8.0 6.7 7.2 7.4 7.6 7.7 7.2 8.2 7.6 8.6 8.3 5.6 7.3 7.3 7.1 8.2 8.4
4.9 5.0 5.1 5.5 5.7 5.6 5.5 6.0 6.1 6.0 6.1 5.9 6.1 6.6 7.8 6.6 7.2 5.9 6.3 6.7 7.2 6.4 7.1 6.8 7.1 7.3 7.7 8.2 8.7 8.8 6.6 3.0 6.1 3.0 8.6 8.7 8.4 8.6 9.0 8.1 8.1 7.3 8.5
5.0 5.0 5.2 5.5 5.7 5.4 5.7 5.8 6.0 6.0 6.3 5.8 5.7 5.9 6.2 6.7 6.6 5.9 6.4 6.8 7.2 7.3 7.0 6.9 7.1 7.6 7.8 7.6 8.2 3.3 3.0 3.0 7.8 3.0 8.3 7.8 8.6 8.0 8.0 7.9 7.6 8.1 8.5